Temperature
5 4 4 4 4 5 5 5 6 6 7 6 6 6 7 7 7 7 7 8 8 9 9 9 10 10 10 11 11 11 11 11 11 11 11 11 11 11 11 11 11 11 11 11
4 4 4 5 5 5 5 5 5 6 6 7 6 6 6 6 6 7 7 8 8 8 9 9 10 10 10 10 10 10 11 11 11 11 11 11 11 10 10 10 10 11 11 11
4 4 5 5 5 5 5 5 5 6 6 6 6 6 6 6 6 7 7 8 8 8 8 9 9 9 9 10 10 10 10 11 11 10 10 10 10 10 10 10 10 10 10 10
3 4 5 5 4 5 5 5 6 6 5 5 6 6 6 6 6 6 6 7 7 8 8 8 9 9 9 9 9 9 10 10 10 10 10 10 10 10 10 9 10 10 10 10
3 4 4 4 5 5 5 5 5 5 5 4 5 5 6 5 5 5 5 7 7 8 8 8 8 8 9 9 9 9 9 9 9 9 9 9 9 9 9 9 9 10 9 9
3 4 4 4 5 5 5 5 5 4 4 5 5 5 5 5 5 6 6 6 7 7 8 8 8 8 8 8 9 9 9 9 9 9 9 9 9 9 9 9 9 9 9 9
3 4 4 4 4 5 5 4 5 5 4 4 4 4 5 5 5 6 6 6 7 7 7 7 8 8 8 8 8 8 8 8 8 8 8 8 8 9 9 9 9 9 9 9
3 3 3 3 4 4 4 4 5 5 4 4 4 4 5 5 5 6 6 6 6 7 7 7 8 8 8 8 8 8 8 8 8 8 8 8 8 8 8 8 8 8 8 8
2 3 3 3 4 4 3 3 4 3 3 4 4 4 4 4 4 4 5 5 6 6 7 7 7 7 8 8 8 7 7 8 7 7 7 7 7 8 8 8 8 8 8 8
2 2 2 3 4 3 3 2 2 3 4 5 4 4 4 5 5 4 4 4 5 6 6 6 7 7 7 7 7 7 7 7 7 7 7 7 7 7 7 7 7 7 7 7
1 1 2 2 2 2 2 2 2 2 3 3 4 5 4 4 4 4 4 4 5 5 6 6 6 7 7 7 7 7 7 7 7 6 6 6 6 7 6 6 6 6 6 6
0 0 1 1 1 2 2 2 1 3 2 1 2 4 4 3 3 3 4 4 5 5 5 6 6 6 6 6 6 6 6 6 6 6 6 6 6 6 6 6 6 6 6 6
0 -0 1 2 2 1 1 1 1 1 1 1 2 4 3 2 3 3 3 4 4 5 5 5 6 6 6 6 6 6 6 6 6 6 5 5 5 5 5 5 5 5 5 5
0 -1 1 2 2 0 0 0 0 0 1 1 1 3 3 3 3 3 3 3 4 4 5 5 5 5 5 5 5 5 5 5 5 5 5 5 5 5 5 5 5 5 5 5
-1 -1 -1 -0 0 0 0 0 0 0 1 2 2 1 3 2 2 2 3 3 3 4 4 4 4 5 5 5 5 5 5 5 4 4 4 4 4 4 4 4 4 4 4 4
-3 -1 -1 -0 -0 -0 -0 0 0 0 0 0 1 1 2 2 2 2 2 2 3 3 3 4 4 4 4 4 4 4 4 4 4 4 4 4 4 4 4 3 3 4 3 3
-3 -2 -1 -0 -1 -0 0 0 0 0 -0 -0 1 2 1 1 1 1 2 2 3 3 3 3 3 3 4 4 4 4 4 4 3 3 3 3 3 3 3 3 3 3 3 3
-3 -3 -3 -2 -1 1 2 -1 -1 -0 -0 -1 -0 -0 -0 0 1 2 2 2 2 3 3 3 3 3 3 3 3 3 3 3 3 3 3 2 3 3 3 2 2 2 2 2
-4 -3 -3 -3 -2 -1 0 -1 -2 -1 -0 -1 -1 -1 -0 0 0 1 2 2 2 2 2 2 2 2 3 3 3 3 2 2 2 2 2 2 2 2 2 2 2 2 2 2
-5 -4 -4 -3 -1 0 1 -1 -2 -1 0 -0 -1 -1 -1 -1 -1 -0 1 2 2 2 2 2 2 2 2 2 2 2 2 2 2 2 2 1 1 1 1 1 1 1 1 1
-4 -5 -4 -4 -3 -1 -1 -2 -1 0 1 -0 -1 -1 -1 -2 -1 0 1 1 1 1 2 2 2 2 2 2 1 1 1 1 1 1 1 0 1 1 0 0 0 0 0 0
-4 -4 -5 -5 -3 -1 -2 -3 -2 -1 -0 -1 -1 -1 -1 -1 -0 -0 0 0 1 1 1 1 1 1 1 1 1 1 1 0 0 0 0 -0 -0 -0 -0 -0 -0 -0 -0 -0
-5 -4 -4 -4 -1 -2 -2 -2 -1 -1 -1 -1 -0 -0 -1 -1 -1 -1 -0 -0 -0 0 0 0 0 0 0 0 -0 0 0 -0 -0 -0 -1 -1 -0 -0 -1 -1 -1 -1 -1 -1
-6 -6 -5 -5 -4 -3 -2 -1 -1 -1 -1 -1 -1 -1 -1 -1 -1 -1 -1 -1 -1 -1 -0 -0 -0 -0 -0 -0 -1 -1 -1 -1 -1 -1 -1 -1 -1 -1 -1 -1 -1 -1 -1 -1
-5 -7 -6 -5 -5 -4 -2 -1 -1 -1 -1 -1 -1 -1 -1 -1 -1 -1 -1 -1 -1 -1 -1 -1 -1 -1 -1 -1 -1 -1 -1 -1 -1 -1 -1 -1 -1 -1 -1 -2 -2 -2 -2 -2
-6 -6 -5 -3 -2 -3 -2 -1 -1 -1 -1 -1 -1 -1 -1 -1 -1 -2 -2 -2 -2 -2 -1 -1 -1 -1 -1 -1 -1 -2 -2 -2 -2 -2 -2 -2 -2 -2 -2 -2 -2 -2 -2 -2
Wind_Speed
1 2 4 7 7 6 6 7 8 7 4 5 9 11 10 7 6 7 6 6 6 6 5 4 3 3 3 3 4 4 5 5 5 4 4 4 3 2 2 2 3 6 6 7
2 4 7 5 4 4 5 7 8 6 4 5 6 10 9 8 7 8 8 8 7 6 4 3 3 3 4 4 4 4 5 6 5 4 3 3 3 2 2 2 3 4 5 6
4 4 3 3 4 4 6 7 7 5 3 2 3 6 5 4 2 3 5 7 7 8 7 5 4 4 4 4 4 4 4 5 5 5 4 3 3 2 1 1 1 2 4 6
2 4 2 3 4 4 6 6 6 5 3 3 2 4 6 3 3 5 6 7 8 7 7 6 5 4 4 4 4 4 4 4 5 6 5 5 4 3 3 2 2 2 3 5
3 2 2 4 5 4 4 3 4 4 3 3 2 3 6 2 5 7 7 8 8 7 7 6 5 5 4 4 4 3 3 3 4 5 6 6 4 3 2 2 3 2 2 3
4 3 3 4 3 3 2 0 1 1 1 4 4 4 5 5 6 5 5 5 5 5 5 5 4 4 4 3 3 3 3 2 3 4 5 6 6 5 4 3 3 2 1 1
4 3 1 1 0 1 2 3 1 2 1 4 2 3 6 5 5 5 5 4 4 4 4 4 4 4 4 4 4 4 4 3 3 4 5 5 5 6 6 5 4 3 2 2
1 4 2 1 2 2 2 3 4 3 3 3 1 4 6 3 2 3 3 4 3 3 3 4 5 5 5 5 5 5 5 4 4 4 4 4 4 4 3 4 4 4 3 3
2 4 2 1 0 2 2 2 2 3 0 2 3 4 6 3 3 2 3 2 3 2 2 3 3 4 4 5 5 5 5 4 4 4 3 3 4 4 3 3 3 3 2 2
3 2 4 3 1 2 2 3 2 3 2 3 3 3 3 4 4 3 3 3 3 2 2 2 2 2 3 3 4 4 5 5 4 4 3 3 3 3 3 3 3 3 2 2
2 2 3 1 1 2 1 2 2 2 2 3 2 5 3 4 4 4 4 4 4 3 3 3 2 2 2 2 3 4 4 4 4 4 3 3 2 2 2 2 3 4 3 3
1 2 2 4 2 0 2 3 3 3 3 2 2 5 3 3 4 4 4 4 3 3 3 3 2 1 1 2 3 3 4 4 4 3 3 3 2 2 3 3 3 3 4 3
2 3 1 3 3 2 1 1 1 2 2 3 3 6 4 3 4 4 4 5 4 3 2 2 1 1 2 2 3 3 3 4 3 3 3 3 3 3 3 3 3 3 3 3
4 3 4 6 4 2 2 2 2 3 3 4 6 8 9 7 7 6 5 5 4 3 2 2 2 2 3 2 2 3 3 3 3 3 3 3 3 3 3 3 3 3 3 4
3 2 3 4 3 2 3 4 4 6 6 6 7 8 11 9 7 6 4 4 4 3 3 3 3 3 3 2 2 2 2 3 3 3 3 3 3 3 3 3 3 3 3 3
2 2 1 3 2 2 4 6 7 8 7 8 9 11 10 7 4 4 4 3 4 4 3 3 3 3 3 2 2 2 2 2 3 4 3 3 3 3 3 2 3 3 3 3
1 2 1 3 2 3 5 8 9 6 6 6 10 11 6 6 5 5 4 4 5 5 4 3 3 3 3 2 2 3 3 2 2 3 3 3 3 3 2 2 2 3 3 3
4 3 2 0 3 4 7 1 5 7 7 8 8 8 6 7 5 4 3 4 5 4 3 3 3 2 2 2 1 1 1 2 2 2 2 3 3 3 2 2 2 2 2 2
3 5 3 2 2 7 7 3 3 4 7 7 10 10 8 5 4 5 3 3 4 4 4 3 2 2 1 1 1 1 1 2 2 2 2 3 3 3 3 3 3 2 2 2
3 3 4 3 3 6 6 2 2 2 6 4 6 7 5 1 2 5 4 3 3 3 2 2 1 1 1 1 1 2 1 2 2 2 2 2 3 3 3 3 3 2 2 2
2 2 3 4 5 8 6 2 3 3 6 4 3 4 2 3 4 4 4 4 3 2 2 1 1 1 1 1 1 1 1 2 2 2 2 2 2 2 3 3 2 2 2 2
6 6 5 5 5 8 3 5 6 6 3 3 3 3 3 4 4 3 4 3 3 3 3 2 1 2 2 1 2 1 1 1 0 2 2 2 2 2 2 3 2 2 3 2
7 8 6 9 9 4 4 5 4 2 3 4 3 3 2 3 4 3 3 3 3 3 3 2 1 1 2 1 1 2 1 1 1 2 2 2 2 2 2 3 3 2 2 2
4 3 4 6 9 7 6 6 5 4 4 4 4 3 3 3 4 4 3 3 3 3 3 2 0 1 2 2 1 1 1 1 2 2 1 1 2 2 2 2 2 2 3 3
5 5 4 7 8 7 6 7 7 5 4 3 3 3 3 3 4 4 4 4 3 3 3 2 1 2 2 2 1 0 1 2 2 1 1 1 2 2 2 1 1 2 2 3
6 8 7 8 6 5 6 4 4 4 5 4 4 3 3 3 4 4 4 3 3 3 2 2 2 2 2 2 1 1 0 2 2 1 1 1 1 2 2 1 1 1 2 3
Wind_Direction
75 121 211 222 220 231 226 229 244 249 239 216 231 249 259 244 225 229 227 219 217 222 219 193 178 167 166 167 166 175 169 159 152 155 157 159 171 171 171 163 160 160 157 154
65 232 234 229 235 246 239 245 247 264 257 234 243 259 259 241 223 215 219 218 214 213 206 191 171 171 182 181 177 176 180 167 163 167 167 163 154 159 169 161 157 163 164 163
193 238 225 215 240 252 245 228 233 246 290 267 260 274 260 254 228 222 224 223 210 206 202 195 180 182 181 186 178 184 184 174 166 153 135 121 107 101 113 173 170 172 178 174
244 261 213 223 244 226 242 230 232 234 252 269 205 257 267 237 246 235 229 220 213 209 198 193 186 186 189 185 164 168 174 167 164 154 155 160 168 179 201 199 186 182 188 184
260 251 221 233 245 219 225 241 228 214 210 278 232 219 269 242 247 246 234 220 215 208 199 195 190 193 189 175 164 162 150 153 165 164 166 169 178 182 179 175 174 185 196 181
257 265 238 231 249 222 231 38 81 75 136 259 233 199 261 221 221 238 236 217 207 203 197 195 192 183 175 158 156 158 160 170 167 176 176 179 180 177 176 182 192 190 195 187
307 289 294 215 82 2 92 107 35 351 319 254 187 199 249 245 225 223 232 223 201 193 190 196 193 185 181 174 174 178 178 190 188 186 189 188 189 183 190 194 195 194 200 210
290 289 295 357 167 193 200 162 167 206 237 286 234 233 259 274 266 235 237 225 197 199 198 197 198 194 193 195 190 187 188 193 192 195 197 191 191 188 204 206 197 200 204 203
197 264 315 310 298 142 150 187 194 146 309 273 266 291 308 323 320 281 254 240 222 221 213 204 203 204 200 198 199 196 192 192 196 198 195 193 185 185 195 200 186 188 184 176
161 262 295 302 50 23 135 153 104 136 180 259 283 272 269 304 297 281 254 249 242 224 228 221 213 209 208 205 204 192 188 190 192 187 194 197 186 182 184 185 183 176 170 165
131 175 305 7 173 194 109 118 133 136 166 177 247 270 239 246 271 264 252 250 242 237 235 235 233 223 208 199 201 193 187 184 187 189 189 185 189 169 166 184 187 178 170 167
146 136 262 253 264 230 175 172 157 171 234 197 196 269 300 267 276 270 271 278 268 247 250 250 237 217 206 203 199 194 189 190 197 188 180 179 182 174 176 184 184 179 174 170
142 123 11 343 347 4 296 249 187 152 137 180 202 265 321 332 316 298 291 294 288 275 283 281 250 224 223 222 210 205 195 194 195 182 179 177 183 183 187 195 183 175 172 170
127 142 184 207 228 198 244 251 190 152 192 224 232 257 293 305 305 309 305 299 297 285 281 280 273 262 248 237 220 210 207 193 184 180 187 190 191 188 187 192 185 179 176 175
112 186 230 252 255 209 229 237 215 212 220 224 254 254 271 283 284 287 285 299 309 307 305 290 278 273 270 264 250 223 211 197 182 178 190 206 198 183 180 180 183 177 179 183
96 168 221 280 262 249 267 250 232 233 238 248 269 273 273 284 284 288 281 281 286 285 286 289 289 287 271 247 238 229 226 210 180 179 191 195 180 173 174 180 180 174 177 178
147 143 144 272 317 352 274 234 213 218 221 214 241 257 285 294 281 268 265 263 262 269 273 280 282 282 268 244 221 218 220 198 177 183 187 184 177 174 178 182 173 178 182 176
159 148 158 281 41 249 252 199 201 221 243 226 247 271 273 274 288 292 273 250 263 271 277 284 283 284 281 259 248 222 197 171 174 182 183 179 176 172 173 178 180 178 180 179
175 157 146 148 240 273 286 249 187 210 269 237 241 265 281 312 335 314 295 256 250 262 266 269 266 262 265 242 202 157 171 169 173 179 181 183 177 176 180 188 191 186 168 177
72 110 137 149 196 243 256 231 193 152 283 267 233 252 275 48 318 291 321 320 302 299 286 279 277 252 229 239 147 142 186 185 195 198 192 187 178 178 189 190 191 185 169 178
117 111 175 191 226 263 260 219 139 173 259 303 249 248 228 216 238 282 321 337 330 323 311 301 282 258 251 226 138 154 189 217 215 182 167 170 172 178 184 173 174 170 168 160
179 177 192 172 205 253 205 145 185 229 282 280 267 261 248 257 281 303 321 332 337 336 333 331 318 298 293 217 158 175 219 240 155 145 151 162 166 171 166 160 168 168 164 162
204 197 193 198 219 255 191 214 239 254 265 270 261 265 254 262 280 294 303 312 317 315 317 320 288 300 310 276 180 191 236 170 133 126 144 160 154 153 159 162 165 167 173 178
251 208 205 249 260 258 250 256 264 252 250 264 260 258 242 254 277 290 291 299 307 312 309 307 272 285 300 312 302 208 212 166 145 151 167 155 155 157 158 167 173 179 189 192
230 180 214 254 272 294 267 243 252 257 261 274 283 262 243 246 273 275 280 287 294 302 301 297 256 261 283 303 310 323 172 149 134 146 165 159 156 156 152 159 187 211 224 216
199 189 197 237 235 222 260 265 247 240 249 253 262 275 266 238 253 265 269 274 280 285 294 297 294 282 286 300 308 315 186 157 146 144 139 141 143 146 147 137 50 326 261 256
Height
1481 1486 1487 1486 1486 1486 1486 1485 1484 1482 1479 1480 1479 1476 1473 1472 1473 1473 1473 1473 1474 1476 1478 1480 1482 1485 1487 1489 1491 1493 1496 1499 1501 1503 1504 1506 1509 1510 1512 1514 1516 1518 1520 1522
1484 1486 1483 1482 1483 1484 1483 1483 1483 1480 1478 1478 1477 1474 1469 1468 1468 1468 1469 1470 1471 1473 1475 1477 1479 1481 1484 1486 1488 1491 1493 1495 1498 1500 1502 1505 1506 1508 1510 1512 1513 1515 1517 1519
1484 1482 1480 1482 1482 1482 1481 1481 1480 1480 1477 1476 1477 1473 1467 1464 1464 1464 1465 1467 1468 1470 1472 1474 1476 1478 1481 1483 1485 1487 1490 1492 1495 1498 1500 1502 1504 1506 1507 1508 1509 1511 1514 1515
1482 1480 1480 1480 1480 1480 1479 1477 1477 1478 1480 1480 1478 1477 1466 1464 1463 1462 1462 1463 1465 1467 1469 1471 1473 1476 1478 1480 1483 1485 1487 1490 1493 1495 1497 1498 1500 1502 1503 1505 1507 1509 1511 1512
1481 1479 1479 1479 1477 1476 1476 1474 1476 1477 1479 1482 1479 1480 1468 1463 1462 1460 1459 1459 1460 1463 1465 1467 1470 1473 1476 1478 1480 1482 1484 1487 1490 1492 1494 1496 1498 1499 1501 1503 1505 1506 1507 1508
1481 1479 1478 1477 1475 1474 1474 1475 1476 1479 1481 1481 1478 1479 1470 1463 1459 1457 1457 1457 1457 1460 1462 1465 1468 1470 1472 1475 1477 1480 1482 1484 1486 1488 1490 1492 1494 1495 1497 1499 1500 1501 1503 1504
1482 1478 1476 1475 1475 1474 1475 1478 1481 1482 1485 1480 1476 1476 1467 1456 1455 1455 1455 1455 1456 1458 1460 1462 1464 1467 1469 1472 1475 1477 1479 1481 1483 1485 1487 1489 1490 1492 1494 1495 1496 1497 1499 1500
1486 1482 1476 1475 1475 1476 1477 1478 1483 1484 1484 1480 1476 1474 1462 1455 1453 1453 1453 1453 1454 1456 1457 1460 1462 1465 1468 1470 1472 1474 1477 1478 1480 1482 1483 1485 1487 1489 1491 1492 1493 1494 1496 1496
1487 1484 1477 1476 1475 1476 1479 1481 1481 1485 1486 1484 1477 1471 1461 1452 1451 1451 1452 1452 1452 1454 1456 1457 1460 1462 1465 1467 1469 1471 1473 1474 1477 1478 1480 1482 1484 1485 1487 1488 1490 1491 1492 1493
1485 1487 1480 1477 1476 1477 1479 1481 1484 1484 1484 1480 1475 1472 1465 1455 1452 1451 1451 1451 1452 1453 1454 1455 1458 1460 1462 1464 1466 1468 1470 1471 1473 1475 1477 1479 1480 1482 1483 1484 1485 1487 1488 1489
1484 1488 1484 1480 1480 1480 1481 1483 1483 1485 1484 1483 1478 1468 1457 1455 1453 1452 1451 1451 1451 1452 1453 1454 1456 1457 1459 1461 1463 1465 1466 1468 1470 1472 1474 1475 1476 1478 1479 1481 1482 1482 1484 1486
1485 1489 1488 1483 1480 1479 1479 1481 1483 1482 1484 1487 1484 1471 1455 1454 1452 1451 1450 1450 1450 1451 1452 1453 1454 1455 1457 1458 1460 1461 1463 1464 1466 1468 1469 1471 1473 1474 1475 1477 1478 1479 1480 1482
1484 1489 1487 1481 1484 1484 1482 1481 1482 1483 1484 1488 1483 1468 1455 1453 1451 1451 1450 1449 1449 1449 1450 1451 1451 1453 1454 1455 1457 1458 1459 1461 1463 1464 1466 1468 1469 1470 1471 1473 1474 1475 1476 1478
1482 1488 1487 1482 1480 1483 1483 1481 1482 1483 1483 1483 1477 1465 1456 1453 1451 1450 1449 1448 1447 1447 1448 1448 1449 1450 1452 1453 1454 1455 1456 1458 1459 1461 1462 1464 1465 1466 1468 1469 1471 1471 1473 1474
1482 1486 1486 1483 1481 1481 1481 1479 1480 1480 1477 1474 1466 1465 1456 1453 1452 1450 1448 1448 1447 1446 1446 1447 1447 1448 1449 1449 1450 1452 1453 1455 1456 1457 1458 1460 1461 1462 1464 1465 1467 1468 1469 1471
1484 1486 1486 1483 1480 1480 1479 1476 1476 1475 1474 1472 1467 1461 1452 1451 1450 1449 1447 1447 1446 1445 1445 1446 1445 1445 1445 1446 1448 1449 1450 1451 1452 1454 1455 1456 1457 1458 1460 1461 1463 1464 1465 1467
1486 1487 1486 1483 1483 1479 1476 1469 1470 1469 1467 1466 1463 1455 1451 1450 1448 1447 1446 1445 1445 1444 1444 1444 1444 1443 1443 1444 1445 1446 1447 1448 1449 1450 1451 1452 1453 1454 1456 1458 1459 1460 1461 1463
1484 1486 1489 1488 1485 1479 1464 1463 1463 1462 1460 1460 1456 1452 1450 1448 1446 1445 1445 1444 1443 1443 1443 1443 1442 1442 1442 1443 1443 1444 1445 1446 1446 1447 1448 1449 1450 1451 1452 1454 1456 1457 1458 1459
1481 1484 1489 1491 1489 1477 1464 1462 1462 1463 1458 1453 1453 1449 1448 1447 1445 1443 1443 1443 1442 1442 1442 1441 1441 1441 1441 1441 1441 1442 1443 1443 1444 1444 1445 1446 1447 1448 1449 1451 1452 1453 1454 1455
1482 1482 1487 1490 1484 1473 1458 1459 1458 1461 1457 1449 1448 1447 1446 1446 1448 1444 1442 1441 1440 1440 1439 1439 1439 1439 1439 1439 1439 1439 1440 1441 1441 1442 1442 1443 1444 1445 1446 1448 1449 1450 1451 1452
1485 1487 1488 1488 1484 1470 1459 1457 1458 1461 1453 1447 1446 1445 1445 1445 1444 1443 1440 1439 1439 1438 1437 1437 1437 1437 1437 1437 1437 1437 1438 1438 1439 1439 1440 1441 1441 1442 1443 1444 1445 1446 1447 1449
1479 1483 1487 1486 1482 1467 1454 1455 1456 1451 1447 1446 1444 1444 1444 1443 1441 1440 1439 1438 1437 1437 1436 1436 1435 1435 1435 1435 1435 1435 1435 1436 1436 1436 1437 1438 1439 1440 1441 1441 1442 1443 1444 1445
1472 1469 1469 1469 1460 1451 1450 1449 1447 1447 1446 1444 1444 1443 1442 1441 1440 1439 1438 1437 1437 1436 1435 1434 1434 1433 1433 1433 1433 1432 1433 1433 1433 1434 1434 1435 1436 1437 1438 1439 1439 1440 1441 1442
1466 1464 1464 1462 1451 1447 1447 1445 1445 1444 1443 1442 1442 1441 1441 1439 1438 1438 1437 1436 1436 1435 1434 1433 1432 1431 1431 1430 1430 1430 1430 1431 1431 1431 1432 1432 1433 1434 1435 1436 1437 1438 1439 1439
1459 1461 1460 1456 1448 1444 1441 1440 1440 1440 1440 1440 1439 1439 1438 1437 1436 1436 1435 1434 1434 1433 1432 1431 1430 1429 1428 1428 1428 1428 1428 1428 1428 1428 1429 1429 1430 1431 1432 1433 1435 1435 1436 1437
1451 1452 1453 1446 1441 1441 1438 1437 1438 1437 1437 1437 1436 1436 1436 1435 1434 1434 1433 1432 1432 1431 1430 1428 1428 1427 1427 1426 1426 1426 1426 1425 1425 1425 1426 1426 1427 1428 1429 1430 1431 1433 1434 1435